[[{"header":{"parameterUnit":"m.s-1","parameterCategory":1,"la1":30.2991,"la2":30.254,"lo1":-89.0895,"lo2":-89.0444,"dy":0.0017,"dx":0.0017,"nx":28,"ny":28,"refTime":"2024-03-28T09:00:00:Z","depth":0,"parameterNumber":2,"parameterNumberName":"U-component_of_WINDS"},"data":[0,0,0,0,0,0,0,0,0,0,0,0,0,0,0,0,0,0,0,0,0,0,0,0,0,0,0,0,0,0,0,0,0,0,0,0,0,0,0,0,0,0,0,0,0,0,0,0,0,0,0,0,0,0,0,0,0,0,0.0642,0.0641,0,0.0612,0.0611,0.0611,0.0625,0.0626,0.0627,0.0627,0.0594,0.0593,0.0591,0,0,0,0,0,0,0,0,0,0,0,0,0,0.071,0.0708,0.0642,0.0641,0.0641,0.0612,0.0611,0.0611,0.0625,0.0626,0.0627,0.0628,0.0595,0.0593,0.0591,0,0,0,0,0,0,0,0,0,0,0,0,0,0.068,0.0708,0.0642,0.0645,0.0644,0.0612,0.0611,0.0611,0.0625,0.0626,0.0627,0.0628,0.0596,0.0593,0.0591,0.0553,0,0,0.0584,0.0583,0,0,0,0,0,0,0,0,0.0682,0.0677,0.0645,0.0644,0.0644,0.0623,0.0623,0.0592,0.0624,0.0632,0.0627,0.0629,0.0603,0.06,0.0592,0.0552,0.055,0.0584,0.0582,0.0581,0.058,0,0,0,0,0,0,0,0.0684,0.0679,0.063,0.0644,0.0644,0.0647,0.0644,0.0617,0.0611,0.0632,0.0633,0.0629,0.0603,0.0594,0.0591,0.055,0.0584,0.0581,0.058,0.0579,0.0478,0.0476,0,0,0,0,0,0,0.0686,0.068,0.0631,0.0629,0.0666,0.0645,0.0641,0.0629,0.0612,0.061,0.0628,0.063,0.0598,0.0594,0.059,0.0545,0.0581,0.0579,0.0577,0.0479,0.0477,0.0476,0,0,0,0,0,0,0.0687,0.0681,0.0632,0.0655,0.0649,0.0642,0.0628,0.0628,0.0619,0.0609,0.0608,0.062,0.0598,0.0593,0.0563,0.0544,0.0578,0.0576,0.048,0.0478,0.0477,0.0454,0,0,0,0,0,0,0.0689,0.0682,0.0668,0.0655,0.0648,0.0605,0.0627,0.0626,0.0615,0.0617,0.0601,0.06,0.0599,0.0566,0.056,0.0541,0.0574,0.0482,0.048,0.0477,0.0456,0.0451,0.0447,0,0,0,0,0,0.0692,0.0662,0.0667,0.0661,0.063,0.0604,0.06,0.06,0.0613,0.0599,0.0593,0.06,0.0547,0.0563,0.0556,0.0536,0.0483,0.048,0.0477,0.0458,0.0452,0.0447,0,0,0,0,0,0,0.0672,0.066,0.0666,0.0631,0.0619,0.0607,0.0588,0.0594,0.0577,0.058,0.058,0.0577,0.0544,0.0537,0.0555,0.0499,0.0517,0.0513,0.0504,0.0499,0.0494,0.0496,0.0572,0,0,0,0,0,0.0664,0.0644,0.0635,0.0605,0.0599,0.0595,0.0583,0.0585,0.0572,0.0566,0.0558,0.0544,0.0525,0.0512,0.0493,0.0456,0.0452,0.0439,0.0434,0.043,0.0426,0.0406,0.0399,0.0467,0.0467,0.0467,0,0,0.0646,0.0638,0.0625,0.0601,0.0592,0.0571,0.059,0.0567,0.0552,0.0563,0.0533,0.0526,0.0511,0.0477,0.0461,0.047,0.0407,0.0427,0.0424,0.0422,0.0402,0.0396,0.039,0.0465,0.0465,0.0465,0,0,0.0604,0.0596,0.057,0.056,0.0546,0.0544,0.0537,0.0525,0.0521,0.0492,0.0499,0.0481,0.0447,0.0436,0.0426,0.038,0.0386,0.0374,0.035,0.033,0.0324,0.032,0.0303,0.0297,0.037,0.037,0.037,0,0.0583,0.0553,0.0556,0.0532,0.0521,0.0531,0.0505,0.0495,0.0475,0.0467,0.0478,0.0436,0.0426,0.0389,0.0378,0.037,0.0363,0.0375,0.0325,0.032,0.0316,0.03,0.0293,0.0369,0.0369,0.0369,0.0369,0,0.0528,0.0507,0.0488,0.0469,0.0457,0.0432,0.043,0.0417,0.042,0.0416,0.0386,0.0375,0.0354,0.0346,0.0348,0.0309,0.0315,0.0325,0.0343,0.0308,0.0293,0.0287,0.0367,0.0367,0.0368,0.0368,0,0,0.0471,0.0455,0.0448,0.0439,0.0425,0.0408,0.0384,0.0365,0.0353,0.0339,0.0318,0.029,0.03,0.0288,0.029,0.0272,0.0236,0.0285,0.0284,0.0275,0.0192,0.0183,0.0176,0.0241,0.024,0.0239,0.0193,0,0.0426,0.0384,0.0386,0.0347,0.0327,0.0337,0.0316,0.0304,0.0301,0.0283,0.0279,0.0258,0.0273,0.0266,0.025,0.0244,0.0219,0.0247,0.022,0.0219,0.0222,0.0168,0.0159,0.0115,0.0187,0.0186,0.0185,0,0.0368,0.0354,0.0312,0.0301,0.0293,0.0274,0.0256,0.0239,0.0227,0.0225,0.0213,0.0218,0.0193,0.0213,0.0178,0.0197,0.0187,0.0182,0.0181,0.0177,0.0199,0.0161,0.0102,0.0095,0.0176,0.0176,0.0177,0,0.0329,0.0299,0.027,0.0263,0.025,0.0236,0.023,0.0218,0.0207,0.0191,0.0184,0.0165,0.0155,0.0141,0.014,0.0155,0.0105,0.0125,0.0102,0.0102,0.009,0.009,0.0026,0.0085,0.0085,0.0086,0.0086,0,0.0279,0.0252,0.0253,0.0235,0.0206,0.0209,0.018,0.0175,0.0165,0.0146,0.0154,0.0136,0.0137,0.0118,0.0118,0.0089,0.0084,0.0082,0.0082,0.008,0.0081,0.0072,0.0075,0.0084,0.0084,0.0085,0.0085,0,0.0229,0.0228,0.0198,0.0188,0.0185,0.0164,0.0155,0.0138,0.0136,0.0112,0.0106,0.0102,0.0081,0.0079,0.0055,0.0055,0.0019,0.0023,0.0023,0.0023,0.0,0.0002,-0.0072,-0.0082,-0.0016,-0.0016,-0.0017,0,0.0196,0.0176,0.0165,0.0153,0.0146,0.0127,0.0115,0.0118,0.0105,0.009,0.0074,0.0054,0.0038,0.0004,-0.0002,-0.002,-0.0018,-0.0042,-0.0021,-0.0022,-0.002,-0.0019,-0.0021,-0.0047,-0.0048,-0.0049,-0.0049,0,0.0137,0.0138,0.0121,0.0104,0.009,0.0077,0.0064,0.0054,0.0055,0.004,0.0019,0.0007,-0.0018,-0.0038,-0.0056,-0.0063,-0.0057,-0.0056,-0.0062,-0.0065,-0.0064,-0.0066,0.001,-0.0054,-0.0054,-0.0054,-0.0053,-0.0053,0.0094,0.0077,0.0066,0.0047,0.0038,0.0027,0.001,0.0006,-0.0011,-0.0031,-0.0028,-0.0052,-0.0064,-0.0087,-0.0095,-0.0114,-0.0106,-0.0115,-0.0117,-0.012,-0.0123,-0.006,-0.0117,-0.0117,-0.0117,-0.0116,-0.0116,0,0.0034,0.0028,0.0011,-0.0007,-0.0021,-0.0012,-0.0025,-0.0039,-0.006,-0.0071,-0.0086,-0.0111,-0.013,-0.0136,-0.0155,-0.0169,-0.0166,-0.0174,-0.0174,-0.0176,-0.0129,-0.0122,-0.0176,-0.0176,-0.0176,-0.0176,-0.0176,-0.0176,0.0001,-0.0027,-0.0028,-0.0061,-0.0066,-0.0089,-0.0098,-0.0108,-0.0117,-0.0144,-0.016,-0.0164,-0.0173,-0.0192,-0.021,-0.0211,-0.0219,-0.0229,-0.0229,-0.0185,-0.0179,-0.0173,-0.0167,-0.023,-0.023,-0.0275,-0.0275,-0.0275]},{"header":{"parameterUnit":"m.s-1","parameterCategory":1,"la1":30.2991,"la2":30.254,"lo1":-89.0895,"lo2":-89.0444,"dy":0.0017,"dx":0.0017,"nx":28,"ny":28,"refTime":"2024-03-28T09:00:00:Z","depth":0,"parameterNumber":3,"parameterNumberName":"V-component_of_WINDS"},"data":[0,0,0,0,0,0,0,0,0,0,0,0,0,0,0,0,0,0,0,0,0,0,0,0,0,0,0,0,0,0,0,0,0,0,0,0,0,0,0,0,0,0,0,0,0,0,0,0,0,0,0,0,0,0,0,0,0,0,-2.7518,-2.7519,0,-2.7618,-2.7619,-2.762,-2.7598,-2.7596,-2.7594,-2.7592,-2.7693,-2.7697,-2.7702,0,0,0,0,0,0,0,0,0,0,0,0,0,-2.7306,-2.731,-2.7517,-2.7519,-2.752,-2.7617,-2.7619,-2.762,-2.7598,-2.7596,-2.7593,-2.7591,-2.7692,-2.7697,-2.7702,0,0,0,0,0,0,0,0,0,0,0,0,0,-2.7401,-2.7312,-2.7517,-2.7521,-2.7522,-2.7617,-2.7619,-2.7621,-2.7598,-2.7596,-2.7593,-2.759,-2.769,-2.7696,-2.7703,-2.7801,0,0,-2.7723,-2.7726,0,0,0,0,0,0,0,0,-2.7396,-2.7409,-2.7519,-2.7521,-2.7522,-2.7592,-2.7581,-2.7681,-2.7599,-2.7569,-2.7592,-2.7589,-2.7662,-2.7671,-2.7695,-2.7805,-2.781,-2.7724,-2.7728,-2.7731,-2.7733,0,0,0,0,0,0,0,-2.7389,-2.7405,-2.7557,-2.752,-2.7523,-2.7517,-2.7527,-2.76,-2.763,-2.7572,-2.757,-2.7583,-2.7662,-2.7689,-2.7698,-2.7811,-2.7724,-2.773,-2.7734,-2.7736,-2.8008,-2.8011,0,0,0,0,0,0,-2.7382,-2.7399,-2.7554,-2.756,-2.7451,-2.7523,-2.7535,-2.7573,-2.7629,-2.7635,-2.7585,-2.7581,-2.7679,-2.769,-2.7701,-2.782,-2.7731,-2.7737,-2.7741,-2.8004,-2.8008,-2.8012,0,0,0,0,0,0,-2.7377,-2.7396,-2.755,-2.7479,-2.7499,-2.753,-2.7572,-2.7576,-2.7603,-2.7639,-2.7644,-2.7607,-2.7677,-2.7692,-2.7776,-2.7823,-2.774,-2.7746,-2.8001,-2.8006,-2.801,-2.8059,0,0,0,0,0,0,-2.7371,-2.7394,-2.7431,-2.748,-2.7502,-2.7624,-2.7575,-2.758,-2.7615,-2.7611,-2.7661,-2.7667,-2.7676,-2.7767,-2.7783,-2.7831,-2.7751,-2.7997,-2.8003,-2.8008,-2.8053,-2.8064,-2.8074,0,0,0,0,0,-2.7364,-2.744,-2.7433,-2.7452,-2.755,-2.7626,-2.7639,-2.7648,-2.7619,-2.7657,-2.768,-2.7665,-2.7816,-2.7776,-2.7794,-2.7845,-2.7994,-2.8001,-2.8008,-2.8048,-2.8062,-2.8074,0,0,0,0,0,0,-2.7395,-2.7447,-2.744,-2.7535,-2.7577,-2.7623,-2.7671,-2.7663,-2.7713,-2.7708,-2.7717,-2.7728,-2.7815,-2.7838,-2.7793,-2.7943,-2.79,-2.7912,-2.7925,-2.7938,-2.7949,-2.7942,-2.7757,0,0,0,0,0,-2.7413,-2.7472,-2.7513,-2.7593,-2.7615,-2.7639,-2.7673,-2.7677,-2.772,-2.7737,-2.7767,-2.7809,-2.7866,-2.7903,-2.7957,-2.8056,-2.8067,-2.81,-2.8111,-2.8119,-2.8129,-2.8184,-2.82,-2.8035,-2.8035,-2.8035,0,0,-2.7451,-2.7487,-2.7522,-2.76,-2.7633,-2.7693,-2.7654,-2.7719,-2.7764,-2.7747,-2.7829,-2.7853,-2.7901,-2.7993,-2.8035,-2.8015,-2.8177,-2.8129,-2.8135,-2.814,-2.8193,-2.8209,-2.8223,-2.804,-2.8039,-2.8039,0,0,-2.7551,-2.7583,-2.7654,-2.7688,-2.7739,-2.7755,-2.7772,-2.782,-2.7835,-2.7918,-2.7907,-2.796,-2.8058,-2.8093,-2.8124,-2.8239,-2.8227,-2.8256,-2.8312,-2.8366,-2.8379,-2.839,-2.8432,-2.8447,-2.8265,-2.8265,-2.8266,0,-2.7591,-2.7682,-2.7691,-2.7758,-2.7793,-2.7782,-2.7854,-2.7886,-2.7952,-2.7976,-2.7952,-2.8076,-2.8107,-2.8208,-2.8237,-2.8261,-2.8282,-2.825,-2.8376,-2.8388,-2.8399,-2.8439,-2.8455,-2.8269,-2.8268,-2.8268,-2.8268,0,-2.773,-2.7793,-2.7844,-2.7909,-2.7949,-2.8018,-2.8038,-2.8078,-2.8079,-2.8097,-2.8183,-2.822,-2.8282,-2.8307,-2.8307,-2.8409,-2.8395,-2.8374,-2.8331,-2.8417,-2.8455,-2.8471,-2.8273,-2.8272,-2.8271,-2.827,0,0,-2.7851,-2.7922,-2.794,-2.797,-2.8026,-2.8075,-2.8144,-2.8206,-2.824,-2.8286,-2.8344,-2.8428,-2.8409,-2.8444,-2.8449,-2.8496,-2.8586,-2.8469,-2.8471,-2.8491,-2.8702,-2.8718,-2.8735,-2.8579,-2.8582,-2.8584,-2.8698,0,-2.7957,-2.8079,-2.809,-2.8199,-2.8258,-2.8249,-2.8309,-2.835,-2.837,-2.8422,-2.8444,-2.8503,-2.8474,-2.8495,-2.8541,-2.8565,-2.8629,-2.8557,-2.8634,-2.8636,-2.8623,-2.8755,-2.8772,-2.8877,-2.8713,-2.8715,-2.8717,0,-2.8096,-2.8148,-2.8263,-2.8312,-2.8338,-2.8391,-2.845,-2.85,-2.8547,-2.8558,-2.8598,-2.8596,-2.8667,-2.8622,-2.8721,-2.8672,-2.8704,-2.8721,-2.8725,-2.8733,-2.8682,-2.8767,-2.8911,-2.8927,-2.874,-2.8738,-2.8737,0,-2.8175,-2.8273,-2.8355,-2.8381,-2.844,-2.8478,-2.8504,-2.8548,-2.8585,-2.8636,-2.866,-2.8718,-2.875,-2.8796,-2.881,-2.8776,-2.8909,-2.8865,-2.892,-2.892,-2.8949,-2.8947,-2.91,-2.8968,-2.8968,-2.8968,-2.8968,0,-2.8292,-2.8363,-2.8391,-2.8442,-2.8522,-2.8534,-2.8613,-2.8637,-2.8677,-2.8732,-2.8727,-2.8779,-2.8795,-2.885,-2.8862,-2.8942,-2.8957,-2.8968,-2.897,-2.8969,-2.8968,-2.899,-2.8983,-2.8972,-2.8971,-2.897,-2.897,0,-2.8393,-2.8415,-2.8504,-2.8553,-2.8567,-2.8624,-2.8666,-2.8715,-2.8734,-2.8805,-2.8822,-2.8852,-2.8917,-2.8936,-2.9013,-2.9021,-2.9116,-2.9111,-2.9101,-2.9101,-2.9156,-2.9151,-2.933,-2.9354,-2.9205,-2.9207,-2.9208,0,-2.8466,-2.8521,-2.8577,-2.8614,-2.8643,-2.8702,-2.8741,-2.8755,-2.8795,-2.8853,-2.8895,-2.8959,-2.9011,-2.9115,-2.9144,-2.9203,-2.92,-2.9259,-2.9209,-2.9207,-2.9203,-2.92,-2.9206,-2.9269,-2.927,-2.9271,-2.9272,0,-2.8595,-2.8604,-2.8659,-2.872,-2.8766,-2.8813,-2.8859,-2.889,-2.8911,-2.8956,-2.9023,-2.9063,-2.9143,-2.9207,-2.9268,-2.9294,-2.9288,-2.9288,-2.9304,-2.9304,-2.9296,-2.9302,-2.9127,-2.9284,-2.9283,-2.9282,-2.9281,-2.9281,-2.8686,-2.8735,-2.8782,-2.8845,-2.8881,-2.8924,-2.8973,-2.8999,-2.9055,-2.9122,-2.9127,-2.92,-2.9246,-2.9327,-2.9357,-2.9414,-2.9397,-2.942,-2.9426,-2.9432,-2.9437,-2.9286,-2.9425,-2.9424,-2.9424,-2.9424,-2.9424,0,-2.8815,-2.8845,-2.8903,-2.8968,-2.9018,-2.9007,-2.9058,-2.91,-2.9164,-2.9208,-2.926,-2.9337,-2.94,-2.9434,-2.9496,-2.9535,-2.9534,-2.9551,-2.9549,-2.9555,-2.9448,-2.9428,-2.9551,-2.9551,-2.9551,-2.9551,-2.9551,-2.9551,-2.8888,-2.8971,-2.8986,-2.9087,-2.9117,-2.9188,-2.9218,-2.9259,-2.9294,-2.9381,-2.9433,-2.9455,-2.9496,-2.9561,-2.9618,-2.9627,-2.965,-2.967,-2.9676,-2.9576,-2.9563,-2.955,-2.9532,-2.9675,-2.9675,-2.9779,-2.978,-2.9781]}]]